Hourly Data Report for October 20, 2015

All times are specified in Local Standard Time (LST). Add 1 hour to adjust for Daylight Saving Time where and when it is observed.

ARVIAT A
NUNAVUT

61°05'38.000" N
94°04'18.000" W
10.40 m
2300427
71174
YEK

Download Data

Hourly Data (October 2015)
Hourly Data Report for October 20, 2015
Temp Definition
°C
Dew Point Temp Definition
°C
Rel Hum Definition
%
Wind Dir Definition
10's deg

Wind Spd Definition
km/h
Visibility Definition
km
Stn Press Definition
kPa
Hmdx Definition


Wind Chill Definition


Weather Definition


TIME
00:00 Legend Double Dagger -10.8 -12.6 87 33 32 16.1 101.87   -21 LegendNANA
01:00 Legend Double Dagger -10.6 -12.2 88 33 32 16.1 101.91   -21 LegendNANA
02:00 Legend Double Dagger -11.3 -12.7 90 32 30 16.1 101.98   -21 LegendNANA
03:00 Legend Double Dagger -11.5 -13.1 88 32 26 16.1 102.05   -21 LegendNANA
04:00 Legend Double Dagger -11.8 -13.4 88 32 30 16.1 102.09   -22 LegendNANA
05:00 Legend Double Dagger -12.5 -14.1 88 32 28 16.1 102.15   -22 LegendNANA
06:00 Legend Double Dagger -12.7 -14.3 88 32 28 16.1 102.21   -23 LegendNANA
07:00 Legend Double Dagger -13.5 -14.9 89 33 24 16.1 102.24   -23 LegendNANA
08:00 Legend Double Dagger -13.7 -15.1 89 32 26 16.1 102.27   -24 LegendNANA
09:00 Legend Double Dagger -13.7 -15.3 88 33 24 16.1 102.31   -23 LegendNANA
10:00 Legend Double Dagger -13.4 -14.9 89 33 24 16.1 102.35   -23 LegendNANA
11:00 Legend Double Dagger -13.3 -14.9 88 32 18 16.1 102.40   -22 LegendNANA
12:00 Legend Double Dagger -12.3 -13.9 88 33 21 16.1 102.41   -21 LegendNANA
13:00 Legend Double Dagger -11.8 -13.4 88 31 17 16.1 102.44   -19 LegendNANA
14:00 Legend Double Dagger -11.6 -13.1 89 32 13 16.1 102.44   -18 LegendNANA
15:00 Legend Double Dagger -11.6 -13.1 89 32 11 16.1 102.42   -18 LegendNANA
16:00 Legend Double Dagger -12.4 -13.7 90 32 11 16.1 102.42   -18 LegendNANA
17:00 Legend Double Dagger -13.0 -13.9 93 35 9 16.1 102.38   -18 LegendNANA
18:00 Legend Double Dagger -14.1 -14.7 95 36 8 16.1 102.37   -19 LegendNANA
19:00 Legend Double Dagger -15.4 -16.3 93 34 8 16.1 102.38   -21 LegendNANA
20:00 Legend Double Dagger -12.8 -13.4 95 33 8 16.1 102.36   -18 LegendNANA
21:00 Legend Double Dagger -10.5 -11.0 96 2 9 16.1 102.32   -15 LegendNANA
22:00 Legend Double Dagger -9.2 -12.2 79 26 8 16.1 102.29   -14 LegendNANA
23:00 Legend Double Dagger -8.7 -10.8 85 25 8 16.1 102.28   -13 LegendNANA

Notes on Data Quality.

Legend

  • E = Estimated
  • M = Missing
  • NA = Not Available
  • ‡ = Partner data that is not subject to review by the National Climate Archives
Date modified: